When you browse on this site, cookies collect data to enhance your experience and personalize the content and advertising you see.
Visit our Privacy Policy to learn more. By continuing to use the site, you agree to this use of cookies and data.

Stündliche Wetter Port-au-Princ

Heute, 7 Juli, Dienstag

Zeit Temperatur Niederschläge Wind Luftdruck Luftfeuchtigkeit
00:00 +25°C° 0 mm 0 m/S 736 mmHg 83%
01:00 +24°C° 0 mm 0 m/S 736 mmHg 82%
02:00 +26°C° 0 mm 1 m/S 736 mmHg 82%
03:00 +26°C° 0 mm 1 m/S 736 mmHg 82%
04:00 +25°C° 0 mm 1 m/S 735 mmHg 82%
05:00 +26°C° 0 mm 1 m/S 736 mmHg 79%
06:00 +27°C° 0 mm 1 m/S 736 mmHg 75%
07:00 +27°C° 0 mm 1 m/S 736 mmHg 72%
08:00 +29°C° 0 mm 1 m/S 737 mmHg 68%
09:00 +30°C° 0 mm 1 m/S 737 mmHg 65%
10:00 +31°C° 0 mm 1 m/S 737 mmHg 61%
11:00 +32°C° 0.1 mm 2 m/S 737 mmHg 59%
12:00 +32°C° 0.1 mm 2 m/S 737 mmHg 56%
13:00 +34°C° 0.1 mm 2 m/S 736 mmHg 54%
14:00 +34°C° 0.3 mm 2 m/S 736 mmHg 57%
15:00 +32°C° 0.3 mm 2 m/S 735 mmHg 60%
16:00 +32°C° 0.3 mm 2 m/S 735 mmHg 62%
17:00 +31°C° 0.5 mm 2 m/S 735 mmHg 69%
18:00 +29°C° 0.5 mm 1 m/S 735 mmHg 76%
19:00 +28°C° 0.5 mm 1 m/S 735 mmHg 83%
20:00 +28°C° 0.2 mm 1 m/S 736 mmHg 83%
21:00 +27°C° 0.2 mm 1 m/S 736 mmHg 83%
22:00 +27°C° 0.2 mm 1 m/S 736 mmHg 83%
23:00 +25°C° 0 mm 0 m/S 736 mmHg 84%

Morgen, 8 Juli, Mittwoch

Zeit Temperatur Niederschläge Wind Luftdruck Luftfeuchtigkeit
00:00 +25°C° 0 mm 0 m/S 735 mmHg 84%
01:00 +24°C° 0 mm 0 m/S 735 mmHg 84%
02:00 +24°C° 0 mm 0 m/S 735 mmHg 84%
03:00 +26°C° 0 mm 1 m/S 735 mmHg 85%
04:00 +26°C° 0 mm 1 m/S 734 mmHg 85%
05:00 +27°C° 0 mm 1 m/S 735 mmHg 83%
06:00 +27°C° 0 mm 1 m/S 735 mmHg 80%
07:00 +28°C° 0 mm 1 m/S 735 mmHg 78%
08:00 +29°C° 0 mm 1 m/S 735 mmHg 73%
09:00 +30°C° 0 mm 1 m/S 735 mmHg 68%
10:00 +31°C° 0 mm 1 m/S 735 mmHg 64%
11:00 +32°C° 0.8 mm 1 m/S 735 mmHg 64%
12:00 +32°C° 0.8 mm 1 m/S 735 mmHg 63%
13:00 +32°C° 0.8 mm 2 m/S 735 mmHg 63%
14:00 +31°C° 3.2 mm 2 m/S 734 mmHg 68%
15:00 +30°C° 3.2 mm 1 m/S 734 mmHg 73%
16:00 +30°C° 3.2 mm 1 m/S 733 mmHg 78%
17:00 +29°C° 2.1 mm 1 m/S 734 mmHg 80%
18:00 +28°C° 2.1 mm 1 m/S 734 mmHg 82%
19:00 +28°C° 2.1 mm 1 m/S 734 mmHg 83%
20:00 +27°C° 0.4 mm 1 m/S 735 mmHg 85%
21:00 +25°C° 0.4 mm 0 m/S 735 mmHg 87%
22:00 +25°C° 0.4 mm 0 m/S 735 mmHg 89%
23:00 +27°C° 0.1 mm 1 m/S 735 mmHg 89%

übermorgen, 9 Juli, Donnerstag

Zeit Temperatur Niederschläge Wind Luftdruck Luftfeuchtigkeit
00:00 +26°C° 0.1 mm 1 m/S 735 mmHg 88%
01:00 +26°C° 0.1 mm 1 m/S 735 mmHg 88%
02:00 +26°C° 0 mm 1 m/S 735 mmHg 87%
03:00 +26°C° 0 mm 2 m/S 735 mmHg 86%
04:00 +26°C° 0 mm 2 m/S 735 mmHg 86%
05:00 +27°C° 0 mm 2 m/S 735 mmHg 84%
06:00 +27°C° 0 mm 1 m/S 735 mmHg 83%
07:00 +27°C° 0 mm 1 m/S 736 mmHg 82%
08:00 +29°C° 0 mm 1 m/S 736 mmHg 75%
09:00 +30°C° 0 mm 2 m/S 736 mmHg 69%
10:00 +31°C° 0 mm 2 m/S 737 mmHg 63%
11:00 +32°C° 0 mm 2 m/S 736 mmHg 61%
12:00 +34°C° 0 mm 2 m/S 736 mmHg 58%
13:00 +35°C° 0 mm 3 m/S 736 mmHg 55%
14:00 +34°C° 0.3 mm 3 m/S 736 mmHg 56%
15:00 +34°C° 0.3 mm 2 m/S 735 mmHg 57%
16:00 +34°C° 0.3 mm 2 m/S 735 mmHg 58%
17:00 +31°C° 0.1 mm 2 m/S 735 mmHg 64%
18:00 +30°C° 0.1 mm 2 m/S 735 mmHg 71%
19:00 +28°C° 0.1 mm 1 m/S 736 mmHg 77%
20:00 +27°C° 0 mm 1 m/S 736 mmHg 77%
21:00 +27°C° 0 mm 1 m/S 736 mmHg 78%
22:00 +26°C° 0 mm 1 m/S 737 mmHg 79%
23:00 +26°C° 0 mm 1 m/S 736 mmHg 79%

10 Juli, Freitag

Zeit Temperatur Niederschläge Wind Luftdruck Luftfeuchtigkeit
00:00 +26°C° 0 mm 1 m/S 736 mmHg 79%
01:00 +25°C° 0 mm 1 m/S 736 mmHg 79%
02:00 +25°C° 0 mm 2 m/S 736 mmHg 79%
03:00 +25°C° 0 mm 2 m/S 736 mmHg 79%
04:00 +25°C° 0 mm 2 m/S 736 mmHg 79%
05:00 +26°C° 0 mm 2 m/S 737 mmHg 77%
06:00 +26°C° 0 mm 2 m/S 737 mmHg 75%
07:00 +27°C° 0 mm 2 m/S 737 mmHg 73%
08:00 +29°C° 0 mm 2 m/S 737 mmHg 67%
09:00 +30°C° 0 mm 2 m/S 737 mmHg 61%
10:00 +32°C° 0 mm 2 m/S 738 mmHg 55%
11:00 +32°C° 0 mm 2 m/S 737 mmHg 54%
12:00 +34°C° 0 mm 2 m/S 737 mmHg 52%
13:00 +34°C° 0 mm 2 m/S 737 mmHg 51%
14:00 +34°C° 0.3 mm 2 m/S 736 mmHg 55%
15:00 +32°C° 0.3 mm 2 m/S 736 mmHg 59%
16:00 +31°C° 0.3 mm 3 m/S 736 mmHg 62%
17:00 +30°C° 0.3 mm 2 m/S 736 mmHg 68%
18:00 +29°C° 0.3 mm 1 m/S 736 mmHg 73%
19:00 +26°C° 0.3 mm 0 m/S 736 mmHg 79%
20:00 +27°C° 0.2 mm 1 m/S 736 mmHg 79%
21:00 +27°C° 0.2 mm 1 m/S 737 mmHg 80%
22:00 +27°C° 0.2 mm 1 m/S 737 mmHg 80%
23:00 +26°C° 0 mm 1 m/S 737 mmHg 80%

11 Juli, Samstag

Zeit Temperatur Niederschläge Wind Luftdruck Luftfeuchtigkeit
00:00 +26°C° 0 mm 1 m/S 736 mmHg 80%
01:00 +26°C° 0 mm 1 m/S 736 mmHg 80%
02:00 +25°C° 0 mm 1 m/S 736 mmHg 80%
03:00 +25°C° 0 mm 1 m/S 736 mmHg 79%
04:00 +25°C° 0 mm 1 m/S 736 mmHg 79%
05:00 +25°C° 0 mm 1 m/S 736 mmHg 77%
06:00 +26°C° 0 mm 1 m/S 736 mmHg 75%
07:00 +27°C° 0 mm 1 m/S 736 mmHg 72%
08:00 +28°C° 0 mm 2 m/S 737 mmHg 67%
09:00 +30°C° 0 mm 2 m/S 737 mmHg 62%
10:00 +31°C° 0 mm 2 m/S 737 mmHg 57%
11:00 +32°C° 0 mm 2 m/S 737 mmHg 54%
12:00 +34°C° 0 mm 2 m/S 736 mmHg 52%
13:00 +34°C° 0 mm 3 m/S 736 mmHg 49%
14:00 +34°C° 0.2 mm 2 m/S 736 mmHg 52%
15:00 +32°C° 0.2 mm 2 m/S 735 mmHg 54%
16:00 +32°C° 0.2 mm 2 m/S 735 mmHg 57%
17:00 +30°C° 0.2 mm 2 m/S 735 mmHg 63%
18:00 +29°C° 0.2 mm 1 m/S 735 mmHg 70%
19:00 +27°C° 0.2 mm 1 m/S 735 mmHg 76%
20:00 +27°C° 0 mm 1 m/S 736 mmHg 76%
21:00 +27°C° 0 mm 1 m/S 736 mmHg 75%
22:00 +26°C° 0 mm 1 m/S 736 mmHg 75%
23:00 +26°C° 0 mm 1 m/S 736 mmHg 75%

12 Juli, Sonntag

Zeit Temperatur Niederschläge Wind Luftdruck Luftfeuchtigkeit
00:00 +26°C° 0 mm 1 m/S 736 mmHg 75%
01:00 +25°C° 0 mm 1 m/S 735 mmHg 75%
02:00 +25°C° 0 mm 1 m/S 735 mmHg 75%
03:00 +25°C° 0 mm 1 m/S 735 mmHg 75%
04:00 +25°C° 0 mm 1 m/S 735 mmHg 75%
05:00 +25°C° 0 mm 1 m/S 735 mmHg 73%
06:00 +26°C° 0 mm 1 m/S 735 mmHg 70%
07:00 +27°C° 0 mm 1 m/S 736 mmHg 68%
08:00 +28°C° 0 mm 2 m/S 736 mmHg 62%
09:00 +30°C° 0 mm 2 m/S 736 mmHg 57%
10:00 +31°C° 0 mm 2 m/S 736 mmHg 51%
11:00 +32°C° 0 mm 2 m/S 736 mmHg 50%
12:00 +34°C° 0 mm 2 m/S 735 mmHg 49%
13:00 +34°C° 0 mm 2 m/S 735 mmHg 48%
14:00 +34°C° 0 mm 2 m/S 735 mmHg 50%
15:00 +34°C° 0 mm 2 m/S 734 mmHg 51%
16:00 +34°C° 0 mm 2 m/S 734 mmHg 53%
17:00 +31°C° 0.1 mm 1 m/S 734 mmHg 61%
18:00 +30°C° 0.1 mm 1 m/S 734 mmHg 68%
19:00 +28°C° 0.1 mm 1 m/S 735 mmHg 76%
20:00 +28°C° 0.1 mm 2 m/S 735 mmHg 77%
21:00 +27°C° 0.1 mm 2 m/S 736 mmHg 79%
22:00 +27°C° 0.1 mm 3 m/S 736 mmHg 80%
23:00 +27°C° 0.2 mm 3 m/S 736 mmHg 81%
Mehr zeigen